Air Resources Laboratory banner image
Air Resources Laboratory web site National Oceanic and Atmospheric Administration (NOAA)

nd roundup


Office: BIS

ASUS43 KBIS 140402
RWRND

NORTH DAKOTA REGIONAL WEATHER ROUNDUP
NATIONAL WEATHER SERVICE BISMARCK ND
1000 PM CST WED DEC 13 2017

NOTE: "FAIR" INDICATES FEW OR NO CLOUDS BELOW 12,000 FEET WITH NO
SIGNIFICANT WEATHER AND/OR OBSTRUCTIONS TO VISIBILITY.


NDZ001>003-009>011-017-140500-
NORTHWEST NORTH DAKOTA

CITY           SKY/WX    TMP DP  RH WIND       PRES   REMARKS
WILLISTON      CLOUDY    35  28  75 W12       30.00F
MINOT          CLOUDY    32  25  75 W8        29.95S
MINOT AFB      CLOUDY    29  25  83 W7        29.94R
$$

NDZ018>021-031>035-040>046-140500-
SOUTHWEST NORTH DAKOTA

CITY           SKY/WX    TMP DP  RH WIND       PRES   REMARKS
BISMARCK       CLOUDY    34  25  69 NW7       30.00F
DICKINSON      CLOUDY    33  26  75 W15       29.99S
GARRISON         N/A     23  21  92 W7        29.97S WCI  15
HETTINGER ARPT MOCLDY    32  25  75 W14       30.03S
$$

NDZ004>008-012>016-024-026-027-054-140500-
NORTHEAST NORTH DAKOTA

CITY           SKY/WX    TMP DP  RH WIND       PRES   REMARKS
GRAND FORKS    FLURRIES  19  15  84 N7        29.99S WCI  10
GRND FRKS AFB  CLOUDY    18  12  79 N9        29.98F WCI   6
DEVILS LAKE    CLOUDY    21  18  88 N9        29.97R WCI  11
$$

NDZ022-023-025-028>030-036>039-047>053-140500-
SOUTHEAST NORTH DAKOTA

CITY           SKY/WX    TMP DP  RH WIND       PRES   REMARKS
FARGO          CLOUDY    19  14  81 N10       30.00R WCI   7
JAMESTOWN      CLOUDY    25  23  92 N8        29.95S WCI  16
$$



ASUS43 KBIS 140402
RWRBIS

NWR BROADCAST TEXT
NATIONAL WEATHER SERVICE BISMARCK ND
1000 PM CST WED DEC 13 2017

NOTE: "FAIR" INDICATES FEW OR NO CLOUDS BELOW 12,000 FEET WITH NO
SIGNIFICANT WEATHER AND/OR OBSTRUCTIONS TO VISIBILITY.


CITY           SKY/WX    TMP DP  RH WIND       PRES   REMARKS
WILLISTON      CLOUDY    35  28  75 W12       30.00F
MINOT          CLOUDY    32  25  75 W8        29.95S
MINOT AFB      CLOUDY    29  25  83 W7        29.94R
BISMARCK       CLOUDY    34  25  69 NW7       30.00F
DICKINSON      CLOUDY    33  26  75 W15       29.99S
GARRISON         N/A     23  21  92 W7        29.97S WCI  15
HETTINGER ARPT MOCLDY    32  25  75 W14       30.03S
JAMESTOWN      CLOUDY    25  23  92 N8        29.95S WCI  16
CARRINGTON     CLOUDY    27  25  93 CALM      29.97F
HAZEN          MOCLDY    25  25 100 SW7       30.01S WCI  17
LINTON           N/A     34  23  64 NW12      30.00S
MANDAN         CLOUDY    30  25  80 NW8       29.99F
OAKES            N/A     25  25 100 N6        29.97S WCI  18
RUGBY          CLOUDY    28  28 100 CALM      29.94S
STANLEY        MOCLDY    28  28 100 NW10      29.97R WCI  19
TIOGA          FAIR      28  28 100 NW14      29.98S WCI  17
WATFORD CITY   FAIR      30  27  86 W9        30.01R
$$

CITY           SKY/WX    TMP DP  RH WIND       PRES   REMARKS
GRAND FORKS    FLURRIES  19  15  84 N7        29.99S WCI  10
GRAND FORKS AF CLOUDY    18  12  79 N9        29.98F WCI   6
DEVILS LAKE    CLOUDY    21  18  88 N9        29.97R WCI  11
FARGO          CLOUDY    19  14  81 N10       30.00R WCI   7
CANDO          CLOUDY    21  23 100 NE5       29.97F WCI  15
CAVALIER       FLURRIES  16  12  86 N8        29.98R WCI   5
GRAFTON        CLOUDY    16  12  86 N10       30.00F WCI   3
GWINNER          N/A     23  21  93 N6        29.98R WCI  16
LANGDON        CLOUDY    18  19 100 N10       29.94R WCI   6
ROLLA          CLOUDY    21  21 100 CALM      29.93S
WALHALLA       FAIR      18  18 100 N7        29.99R WCI   8
$$

CITY           SKY/WX    TMP DP  RH WIND       PRES   REMARKS
ABERDEEN       CLOUDY    31  28  89 N6        29.98R
MOBRIDGE       CLEAR     30  25  81 NW8       29.99R
BUFFALO          N/A     36  29  75 NW24G33   29.99F
RAPID CITY     CLOUDY    39  23  52 NW26G32   30.07R
GLASGOW        CLOUDY    34  25  69 NW16      30.11S
SIDNEY         CLOUDY    38  27  64 NW12      30.05S
WOLF POINT     CLOUDY    36  26  67 SW8       30.07S
GLENDIVE       MOCLDY    36  25  64 W12       30.08S
MILES CITY     CLOUDY    37  25  61 W6        30.15F
BAKER          CLOUDY    32  32 100 W14       30.08S
$$

CITY           SKY/WX    TMP DP  RH WIND       PRES   REMARKS
BILLINGS       CLOUDY    38  27  64 W15       30.26R
GREAT FALLS    CLOUDY    29  25  85 SW10      30.34R WCI  20
$$





Office: FGF ASUS43 KFGF 140310 RWRFGF PRAIRIE TO PINES WEATHER ROUNDUP NATIONAL WEATHER SERVICE EASTERN NORTH DAKOTA/GRAND FORKS ND 900 PM CST WED DEC 13 2017 **SATELLITE DATA USED TO AUGMENT SKY COVER AT AUTOMATED STATIONS** ***** WEATHER ACROSS EASTERN NORTH DAKOTA ***** CITY SKY/WX TMP DP RH WIND PRES REMARKS GRAND FORKS FLURRIES 19 16 88 N8 29.99R WCI 9 GRAND FRKS AFB FLURRIES 18 13 80 N12 29.99S WCI 6 GRAND FRKS NWS N/A 18 N/A N/A N5 N/A WCI 11 DEVILS LAKE CLOUDY 21 18 88 N10 29.96S WCI 10 FARGO CLOUDY 20 15 81 N10 29.98S WCI 9 WAHPETON ARPT N/A 21 14 73 N13 29.98S WCI 9 $$ ***** WEATHER ACROSS CENTRAL AND WESTERN NORTH DAKOTA ***** CITY SKY/WX TMP DP RH WIND PRES REMARKS BISMARCK CLOUDY 34 25 69 NW10 30.01S MINOT CLOUDY 33 26 75 W12 29.95F WCI 24 JAMESTOWN CLOUDY 26 24 92 NE8 29.95S WCI 18 MINOT AFB CLOUDY 31 25 78 W7 29.94F WCI 25 GARRISON N/A 28 24 85 NW8 29.97F WCI 20 WILLISTON MOCLDY 33 27 78 W7 30.01F DICKINSON MOCLDY 31 24 75 W10 29.99S WCI 22 HETTINGER FAIR 31 23 72 NW12 30.03S WCI 22 $$ ***** OTHER AIRPORT OBSERVATIONS IN OUR AREA ***** CITY SKY/WX TMP DP RH WIND PRES REMARKS WALHALLA FAIR 18 18 100 NE7 29.97F WCI 8 GRAFTON AIRPOR CLOUDY 18 14 86 N13 30.02S WCI 4 VALLEY CITY AR CLOUDY 21 21 100 N9 29.98R WCI 11 CANDO CLOUDY 21 21 100 NE5 29.96F WCI 15 CAVALIER APRT FLURRIES 16 12 86 N9 29.99F WCI 4 GWINNER N/A 25 21 86 N13 29.97S WCI 13 SHEYENNE NWR N/A 21 17 83 NE7 29.95S WCI 12 ROLLA CLOUDY 23 21 93 CALM 29.93S ***** THE ABOVE OBSERVATIONS ARE NON NWS ARE NOT QUALITY CONTROLLED AND MAY MIS-REPORT RAIN FOR SNOW... $$ ***** WEATHER ACROSS NORTHERN MINNESOTA ***** CITY SKY/WX TMP DP RH WIND PRES REMARKS FLAG ISLAND FAIR 3 0 85 CALM 29.94R WARROAD FAIR 3 0 85 W6 29.96R WCI -8 ROSEAU FAIR 12 9 85 NW5 29.96R WCI 4 HALLOCK CLOUDY 18 14 86 NE6 29.99S WCI 9 THF RVR FALLS FLURRIES 14 11 87 NW7 29.98R WCI 4 BAUDETTE CLOUDY 4 2 91 CALM 29.93S WASKISH CLOUDY 12 10 92 CALM 29.93S CROOKSTON FLURRIES 16 10 79 N12 30.01R WCI 3 STEPHEN NDAWN N/A 16 12 86 N9 N/A WCI 4 GREENBUSH NDAW N/A 12 10 92 NW7 N/A WCI 2 $$ ***** WEATHER ACROSS CENTRAL AND WEST MINNESOTA ***** CITY SKY/WX TMP DP RH WIND PRES REMARKS FOSSTON FLURRIES 12 10 92 N3 29.94S BEMIDJI FLURRIES 13 9 84 N5 29.92R WCI 5 PARK RAPIDS CLOUDY 15 10 80 NE5 29.92R WCI 8 ELBOW LAKE CLOUDY 20 16 84 N7 29.96R WCI 11 WADENA FLURRIES 16 12 86 N6 29.92S WCI 7 DETROIT LAKES FLURRIES 18 14 86 N5 29.94R WCI 11 MOORHEAD MIX PCPN 18 12 79 N10 29.99S WCI 6 FERGUS FALLS CLOUDY 19 14 79 N7 29.99R WCI 10 MORRIS MN CLOUDY 21 16 79 N13 29.95R WCI 9 STAPLES CLOUDY 16 10 79 N6 29.93R WCI 7 $$ ***** WEATHER ELSEWHERE ACROSS MINNESOTA ***** CITY SKY/WX TMP DP RH WIND PRES REMARKS DULUTH FAIR 13 11 92 N6 29.88R WCI 4 INTRNTL FALLS CLOUDY 15 10 80 NW5 29.91S WCI 8 ELY CLOUDY 9 7 92 CALM 29.89R CLOQUET CLOUDY 16 12 86 NW7 29.89R WCI 6 WHEATON CLOUDY 21 16 79 N10 30.00R WCI 10 BRAINERD CLOUDY 18 12 77 N8 29.92R WCI 8 HIBBING CLOUDY 15 11 83 NE6 29.89R WCI 6 ALEXANDRIA CLOUDY 19 13 77 N8 29.93R WCI 9 SAINT CLOUD FAIR 16 11 80 N6 29.92R WCI 7 MINNEAPOLIS FAIR 20 15 81 N9 29.91S WCI 9 $$ ***** WEATHER ACROSS SOUTH DAKOTA ***** CITY SKY/WX TMP DP RH WIND PRES REMARKS SIOUX FALLS CLOUDY 33 28 81 NW14 29.94R WCI 23 BROOKINGS CLOUDY 27 24 89 N12 29.92S WCI 17 WATERTOWN CLOUDY 27 25 92 N12 29.92R WCI 17 HURON CLOUDY 35 24 64 N13 29.98R SISSETON N/A 24 21 88 N10 29.96S WCI 14 ABERDEEN CLOUDY 33 26 75 NW9 29.97R MITCHELL CLOUDY 36 24 62 N15 29.99R PIERRE FAIR 31 26 82 N9 30.02R WCI 23 MOBRIDGE FAIR 28 24 85 NW3 29.98S RAPID CITY FAIR 39 24 55 NW20 30.06S $$ ***** SOME WEATHER IN NEARBY STATES ***** CITY SKY/WX TMP DP RH WIND PRES REMARKS GLASGOW MT FAIR 29 23 78 W8 30.11R WCI 21 GREAT FALLS MT CLOUDY 32 26 78 SW10 30.32S WCI 24 CHEYENNE WY CLOUDY 36 15 42 N9 30.10R SCOTTSBLUFF NE CLOUDY 40 19 43 NW10 30.10R OMAHA NE CLOUDY 40 25 55 NW22 29.94R DES MOINES IA CLOUDY 35 21 56 NW18G25 29.88R WCI 24 DAVENPORT IA CLOUDY 26 16 65 NW17 29.82R WCI 13 CHICAGO IL FLURRIES 29 20 69 NW21G26 29.63R WCI 16 EAU CLAIRE WI FAIR 14 10 84 N3 29.89R LA CROSSE WI CLOUDY 22 14 71 N14 29.86R WCI 9 $$ ***** SOME NATIONAL WEATHER ***** CITY SKY/WX TMP DP RH WIND PRES REMARKS LA GUARDIA NY CLOUDY 28 6 39 W16 29.68R WCI 16 RALEIGH NC MOCLDY 39 17 41 SW16 29.76R ATLANTA GA FAIR 43 20 39 W8 29.86R NEW ORLEANS LA MOCLDY 50 42 74 S6 30.02F OKLAHOMA CITY FAIR 48 20 32 NW5 29.93R ALBUQUERQUE NM FAIR 38 3 23 SE6 30.01F SALT LAKE CITY CLOUDY 29 26 89 NW10 30.25R FOG WCI 20 LOS ANGELES CA FAIR 65 42 43 S3 29.94F BOISE ID CLOUDY 25 22 88 NW8 30.40R WCI 16 SEATTLE WA FAIR 43 37 79 N6 30.36F $$ *** WEATHER ACROSS MANITOBA...SASKATCHEWAN AND ONTARIO *** ***ONTARIO*** CITY SKY/WX TMP DP RH WIND PRES REMARKS GERALDTON FLURRIES -6 -9 84 N7 29.85F WCI -20 THUNDER BAY CLEAR -2 -6 84 W7 29.93S WCI -16 SIOUX LOOKOUT PTCLDY -13 -18 77 VRB2 29.89S TORONTO LGT SNOW 14 9 79 NE7 29.59F WCI 4 BIG TROUT LK CLEAR -22 -27 76 W3 29.92F PICKLE LAKE NOT AVBL DRYDEN CLEAR 0 -4 85 NW2 29.89S KENORA CLEAR 9 5 85 NW5 29.91R WCI 0 $$ *** MANITOBA*** CITY SKY/WX TMP DP RH WIND PRES REMARKS BRANDON CLOUDY 18 16 93 SE6 29.95F WCI 9 DAUPHIN FLURRIES 21 19 93 E2 29.96F ISLAND LAKE CLOUDY 3 -4 72 CALM 29.93F PILOT MOUND N/A 18 16 93 N7 N/A WCI 8 THE PAS LGT SNOW 18 12 79 N9 29.99S VSB 1 WCI 6 THOMPSON FLURRIES 0 -4 85 NW5 29.95S WCI -10 WINNIPEG FLURRIES 14 10 85 NW3 29.97F LYNN LAKE CLEAR 0 -2 92 NW7 30.00R WCI -13 CHURCHILL LGT SNOW -8 -11 84 N17 30.04R WCI -31 GILLAM FLURRIES 0 -6 78 W3 29.95F $$ ***SASKATCHEWAN*** CITY SKY/WX TMP DP RH WIND PRES REMARKS ESTEVAN PTCLDY 30 28 93 W12 29.95S WCI 21 KINDERSLEY PTCLDY 32 27 80 NW16G24 30.15R WCI 21 LLOYDMINSTER CLOUDY 34 27 75 NW12 30.16R PRINCE ALBERT FLURRIES 34 28 80 N14 30.06R WCI 24 REGINA PTCLDY 32 28 86 NW16G22 29.97S WCI 21 YORKTON FLURRIES 30 27 86 W5 29.91F N. BATTLEFORD CLOUDY 36 28 75 NW17G23 30.13R LA RONGE FLURRIES 21 19 93 NW5 30.08R WCI 15 SASKATOON MOCLDY 36 28 75 NW16G22 30.06R SWIFT CURRENT CLOUDY 32 27 80 NW20 30.09R WCI 20 $$ NOTE: THESE ARE AUTOMATED STATIONS WITH LIMITED QUALITY CONTROL "FAIR" INDICATES FEW OR NO CLOUDS BELOW 12,000 FEET WITH NO SIGNIFICANT WEATHER AND/OR OBSTRUCTIONS TO VISIBILITY. SKY/WX - SKY CONDITION AND SIGNIFICANT WEATHER. TMP - AIR TEMPERATURE. DP - DEWPOINT TEMPERATURE. RH - RELATIVE HUMIDITY. PRES - PRESSURE. HX - HEAT INDEX. WCI - WIND CHILL INDEX. $ ASUS43 KFGF 140331 RWRFGF PRAIRIE TO PINES WEATHER ROUNDUP NATIONAL WEATHER SERVICE EASTERN NORTH DAKOTA/GRAND FORKS ND 900 PM CST WED DEC 13 2017 **SATELLITE DATA USED TO AUGMENT SKY COVER AT AUTOMATED STATIONS** ***** WEATHER ACROSS EASTERN NORTH DAKOTA ***** CITY SKY/WX TMP DP RH WIND PRES REMARKS GRAND FORKS FLURRIES 19 16 88 N8 29.99R WCI 9 GRAND FRKS AFB FLURRIES 18 14 86 N9 29.99S WCI 6 GRAND FRKS NWS N/A 18 N/A N/A N5 N/A WCI 11 DEVILS LAKE CLOUDY 21 18 88 N10 29.96S WCI 10 FARGO CLOUDY 20 15 81 N10 29.98S WCI 9 WAHPETON ARPT N/A 21 14 73 N13G18 29.98S WCI 9 $$ ***** WEATHER ACROSS CENTRAL AND WESTERN NORTH DAKOTA ***** CITY SKY/WX TMP DP RH WIND PRES REMARKS BISMARCK CLOUDY 34 25 69 NW10 30.01S MINOT CLOUDY 33 26 75 W12 29.95F WCI 24 JAMESTOWN CLOUDY 26 24 92 NE8 29.95S WCI 18 MINOT AFB CLOUDY 30 25 80 W8 29.93F WCI 23 GARRISON N/A 28 24 85 NW8 29.97F WCI 20 WILLISTON MOCLDY 33 27 78 W7 30.01F DICKINSON MOCLDY 31 24 75 W10 29.99S WCI 22 HETTINGER FAIR 31 23 72 NW12 30.03S WCI 22 $$ ***** OTHER AIRPORT OBSERVATIONS IN OUR AREA ***** CITY SKY/WX TMP DP RH WIND PRES REMARKS WALHALLA FAIR 18 18 100 N6 29.97F WCI 9 GRAFTON AIRPOR CLOUDY 18 14 86 N12 30.01F WCI 5 VALLEY CITY AR CLOUDY 21 21 100 N14 29.98R WCI 8 CANDO CLOUDY 21 23 100 N7 29.98R WCI 13 CAVALIER APRT FLURRIES 16 12 86 N6 29.97F WCI 7 GWINNER N/A 25 21 86 N8 29.97S WCI 16 SHEYENNE NWR N/A 21 17 83 NE7 29.95S WCI 12 ROLLA CLOUDY 21 21 100 CALM 29.93S ***** THE ABOVE OBSERVATIONS ARE NON NWS ARE NOT QUALITY CONTROLLED AND MAY MIS-REPORT RAIN FOR SNOW... $$ ***** WEATHER ACROSS NORTHERN MINNESOTA ***** CITY SKY/WX TMP DP RH WIND PRES REMARKS FLAG ISLAND FAIR 3 0 85 CALM 29.94R WARROAD FAIR 9 3 78 W5 29.96R WCI 0 ROSEAU FAIR 10 7 85 CALM 29.96S HALLOCK FLURRIES 18 12 79 NE5 29.98F WCI 11 THF RVR FALLS FLURRIES 14 11 87 NW7 29.98R WCI 4 BAUDETTE CLOUDY 4 2 91 CALM 29.93S WASKISH CLOUDY 12 10 92 N3 29.93S CROOKSTON FLURRIES 16 10 79 NE9 30.00S WCI 4 STEPHEN NDAWN N/A 16 12 86 N9 N/A WCI 4 GREENBUSH NDAW N/A 12 10 92 NW7 N/A WCI 2 $$ ***** WEATHER ACROSS CENTRAL AND WEST MINNESOTA ***** CITY SKY/WX TMP DP RH WIND PRES REMARKS FOSSTON FLURRIES 12 10 92 N5 29.95S WCI 4 BEMIDJI LGT SNOW 13 9 85 CALM 29.92F PARK RAPIDS CLOUDY 15 10 80 NE5 29.92R WCI 8 ELBOW LAKE CLOUDY 20 16 86 NW7 29.96S WCI 11 WADENA FLURRIES 16 10 79 N5 29.93R WCI 9 DETROIT LAKES CLOUDY 18 14 86 N7 29.94S WCI 8 MOORHEAD MIX PCPN 18 12 79 CALM 30.00R FERGUS FALLS CLOUDY 19 16 86 N7 29.98F WCI 10 MORRIS MN CLOUDY 21 16 79 N13 29.95R WCI 9 STAPLES CLOUDY 16 10 79 N6 29.93S WCI 7 $$ ***** WEATHER ELSEWHERE ACROSS MINNESOTA ***** CITY SKY/WX TMP DP RH WIND PRES REMARKS DULUTH FAIR 13 11 92 N6 29.88R WCI 4 INTRNTL FALLS CLOUDY 15 10 80 N3 29.92R ELY FLURRIES 9 7 92 CALM 29.89R CLOQUET CLOUDY 18 12 79 NW8 29.89S WCI 7 WHEATON CLOUDY 21 16 79 N12 30.00R WCI 9 BRAINERD CLOUDY 18 12 77 N8 29.92R WCI 8 HIBBING CLOUDY 15 11 83 NE6 29.89R WCI 6 ALEXANDRIA CLOUDY 19 13 77 N8 29.93R WCI 9 SAINT CLOUD FAIR 16 11 80 N6 29.92R WCI 7 MINNEAPOLIS FAIR 20 15 81 N9 29.91S WCI 9 $$ ***** WEATHER ACROSS SOUTH DAKOTA ***** CITY SKY/WX TMP DP RH WIND PRES REMARKS SIOUX FALLS CLOUDY 33 28 81 NW14 29.94R WCI 23 BROOKINGS CLOUDY 27 24 89 N12 29.92S WCI 17 WATERTOWN CLOUDY 27 25 92 N12 29.92R WCI 17 HURON CLOUDY 35 24 64 N13 29.98R SISSETON N/A 24 21 88 N10 29.96S WCI 14 ABERDEEN CLOUDY 33 26 75 NW8 29.97R MITCHELL CLOUDY 36 24 62 N15 29.99R PIERRE FAIR 31 26 82 N9 30.02R WCI 23 MOBRIDGE FAIR 28 24 85 NW3 29.98S RAPID CITY FAIR 39 24 55 NW20 30.06S $$ ***** SOME WEATHER IN NEARBY STATES ***** CITY SKY/WX TMP DP RH WIND PRES REMARKS GLASGOW MT FAIR 29 23 78 W8 30.11R WCI 21 GREAT FALLS MT CLOUDY 32 26 78 SW10 30.32S WCI 24 CHEYENNE WY CLOUDY 36 15 42 N9 30.10R SCOTTSBLUFF NE CLOUDY 40 19 43 NW10 30.10R OMAHA NE CLOUDY 40 25 55 NW22 29.94R DES MOINES IA CLOUDY 35 21 56 NW18G25 29.88R WCI 24 DAVENPORT IA CLOUDY 26 16 65 NW17 29.82R WCI 13 CHICAGO IL FLURRIES 29 20 69 NW21G26 29.63R WCI 16 EAU CLAIRE WI FAIR 14 10 84 N3 29.89R LA CROSSE WI CLOUDY 22 14 71 N14 29.86R WCI 9 $$ ***** SOME NATIONAL WEATHER ***** CITY SKY/WX TMP DP RH WIND PRES REMARKS LA GUARDIA NY CLOUDY 28 6 39 W16 29.68R WCI 16 RALEIGH NC MOCLDY 39 17 41 SW16 29.76R ATLANTA GA FAIR 43 20 39 W8 29.86R NEW ORLEANS LA MOCLDY 50 42 74 S6 30.02F OKLAHOMA CITY FAIR 48 20 32 NW5 29.93R ALBUQUERQUE NM FAIR 38 3 23 SE6 30.01F SALT LAKE CITY CLOUDY 29 26 89 NW10 30.25R FOG WCI 20 LOS ANGELES CA FAIR 65 42 43 S3 29.94F BOISE ID CLOUDY 25 22 88 NW8 30.40R WCI 16 SEATTLE WA FAIR 43 37 79 N6 30.36F $$ *** WEATHER ACROSS MANITOBA...SASKATCHEWAN AND ONTARIO *** ***ONTARIO*** CITY SKY/WX TMP DP RH WIND PRES REMARKS GERALDTON FLURRIES -6 -9 84 N7 29.85F WCI -20 THUNDER BAY CLEAR -2 -6 84 W7 29.93S WCI -16 SIOUX LOOKOUT PTCLDY -13 -18 77 VRB2 29.89S TORONTO LGT SNOW 14 9 79 NE7 29.59F WCI 4 BIG TROUT LK CLEAR -22 -27 76 W3 29.92F PICKLE LAKE NOT AVBL DRYDEN CLEAR 0 -4 85 NW2 29.89S KENORA CLEAR 9 5 85 NW5 29.91R WCI 0 $$ *** MANITOBA*** CITY SKY/WX TMP DP RH WIND PRES REMARKS BRANDON CLOUDY 18 16 93 SE6 29.95F WCI 9 DAUPHIN CLOUDY 21 18 86 SW2 29.96F ISLAND LAKE CLOUDY 3 -4 72 CALM 29.93F PILOT MOUND N/A 18 16 93 N7 N/A WCI 8 THE PAS FLURRIES 18 12 79 NW7 29.99S WCI 8 THOMPSON FLURRIES 0 -4 85 NW5 29.95S WCI -10 WINNIPEG FLURRIES 14 10 85 NW3 29.97F LYNN LAKE CLEAR 0 -2 92 NW7 30.00R WCI -13 CHURCHILL LGT SNOW -8 -11 84 N17 30.04R WCI -31 GILLAM FLURRIES 0 -6 78 W3 29.95F $$ ***SASKATCHEWAN*** CITY SKY/WX TMP DP RH WIND PRES REMARKS ESTEVAN PTCLDY 30 28 93 W12 29.95S WCI 21 KINDERSLEY PTCLDY 32 27 80 NW16G24 30.15R WCI 21 LLOYDMINSTER CLOUDY 34 27 75 NW12 30.16R PRINCE ALBERT FLURRIES 34 28 80 N14 30.06R WCI 24 REGINA PTCLDY 32 28 86 NW16G22 29.97S WCI 21 YORKTON FLURRIES 28 27 93 NW5 29.92S WCI 23 N. BATTLEFORD CLOUDY 36 28 75 NW17G23 30.13R LA RONGE FLURRIES 21 19 93 NW5 30.08R WCI 15 SASKATOON MOCLDY 36 28 75 NW16G22 30.06R SWIFT CURRENT CLOUDY 32 27 80 NW20 30.09R WCI 20 $$ NOTE: THESE ARE AUTOMATED STATIONS WITH LIMITED QUALITY CONTROL "FAIR" INDICATES FEW OR NO CLOUDS BELOW 12,000 FEET WITH NO SIGNIFICANT WEATHER AND/OR OBSTRUCTIONS TO VISIBILITY. SKY/WX - SKY CONDITION AND SIGNIFICANT WEATHER. TMP - AIR TEMPERATURE. DP - DEWPOINT TEMPERATURE. RH - RELATIVE HUMIDITY. PRES - PRESSURE. HX - HEAT INDEX. WCI - WIND CHILL INDEX. $